GW3759 Weather Reports


time (UTC)temp
F
wind
direction
speed
knots
gust
knots
rain 1hr
in
rain 24hr
in
rain mn
in
humidity
%
barometer
mb
20260504081511 50 161 0.0 0.0 0.00 0.00 0.00 63 1015.6
20260504050003 50 156 0.0 1.7 0.00 0.00 0.00 63 1015.7
20260504044502 49 235 0.0 1.7 0.00 0.00 0.00 65 1015.6
20260504043004 49 304 0.0 0.9 0.00 0.00 0.00 68 1015.5
20260504041504 48 304 0.0 0.0 0.00 0.00 0.00 69 1015.4
20260504040004 48 304 0.0 0.0 0.00 0.00 0.00 69 1015.5
20260504034505 47 304 0.0 0.0 0.00 0.00 0.00 70 1015.6
20260504033007 47 304 0.0 0.9 0.00 0.00 0.00 72 1015.4
20260504031506 46 304 0.0 0.9 0.00 0.00 0.00 70 1015.5
20260504030007 47 304 0.0 1.7 0.00 0.00 0.00 69 1015.6
20260504024533 47 304 0.0 0.9 0.00 0.00 0.00 67 1015.5
20260504023003 48 304 0.0 1.7 0.00 0.00 0.00 66 1015.5
20260504021503 48 304 0.0 1.7 0.00 0.00 0.00 64 1015.6
20260504020004 49 304 0.0 1.7 0.00 0.00 0.00 63 1015.4
20260504014503 50 304 0.0 1.7 0.00 0.00 0.00 64 1015.2
20260504013016 50 304 0.0 0.9 0.00 0.00 0.00 64 1015.3
20260504011512 51 304 0.0 0.9 0.00 0.00 0.00 63 1015.1
20260504010003 52 304 0.0 1.7 0.00 0.00 0.00 59 1015.1
20260504004508 53 304 0.0 1.7 0.00 0.00 0.00 59 1015.0
20260504003005 55 304 0.0 0.9 0.00 0.00 0.00 53 1014.9
20260504001502 56 304 0.0 0.0 0.00 0.00 0.00 50 1014.8
20260504000024 58 304 0.0 0.0 0.00 0.00 0.00 44 1014.7
20260503234505 59 304 0.0 1.7 0.00 0.00 0.00 40 1014.4
20260503233011 61 282 0.0 1.7 0.00 0.00 0.00 36 1014.3
20260503231510 62 360 0.0 2.6 0.00 0.00 0.00 31 1014.2
20260503230006 62 14 0.9 6.1 0.00 0.00 0.00 28 1014.1
20260503224502 63 48 0.9 8.7 0.00 0.00 0.00 31 1014.2
20260503223013 64 113 1.7 6.1 0.00 0.00 0.00 33 1014.3
20260503221513 63 350 0.0 4.3 0.00 0.00 0.00 31 1014.4
20260503220016 63 229 0.9 7.0 0.00 0.00 0.00 30 1014.5
20260503214512 62 38 1.7 6.1 0.00 0.00 0.00 29 1014.6
20260503213008 61 190 5.2 15.6 0.00 0.00 0.00 33 1014.5
20260503211506 62 159 4.3 7.8 0.00 0.00 0.00 30 1014.7
20260503210017 61 176 5.2 14.8 0.00 0.00 0.00 33 1014.6
20260503204520 61 192 3.5 9.6 0.00 0.00 0.00 34 1014.7
20260503203022 60 163 4.3 11.3 0.00 0.00 0.00 32 1015.0
20260503201508 60 88 2.6 8.7 0.00 0.00 0.00 35 1015.2
20260503200012 60 150 4.3 10.4 0.00 0.00 0.00 36 1015.4
20260503194511 60 135 1.7 7.0 0.00 0.00 0.00 33 1015.5
20260503193035 59 176 6.1 14.8 0.00 0.00 0.00 35 1015.8
20260503191522 59 74 0.9 9.6 0.00 0.00 0.00 35 1016.0
20260503190022 58 138 1.7 11.3 0.00 0.00 0.00 35 1016.2
20260503184517 57 182 4.3 11.3 0.00 0.00 0.00 36 1016.3
20260503183013 57 116 7.0 11.3 0.00 0.00 0.00 41 1016.6
20260503181513 57 144 5.2 11.3 0.00 0.00 0.00 35 1016.6
20260503180026 57 5 4.3 10.4 0.00 0.00 0.00 36 1016.7
20260503174515 55 180 1.7 7.8 0.00 0.00 0.00 38 1016.7
20260503173021 55 107 4.3 13.9 0.00 0.00 0.00 39 1017.0
20260503171522 55 65 2.6 7.8 0.00 0.00 0.00 36 1017.2